Regional Weather Roundup
Issued by NWS

Home | Current Version | Previous Version | Text Only | Print | Product List | Glossary On
Versions: 1 2 3 4 5 6 7 8 9 10 11 12 13 14 15 16 17 18 19 20 21 22 23 24 25 26 27
000
ASUS44 KLIX 231312
RWRLA
LOUISIANA WEATHER ROUNDUP
NATIONAL WEATHER SERVICE NEW ORLEANS LA
800 AM CDT SUN APR 23 2017

NOTE: "FAIR" INDICATES FEW OR NO CLOUDS BELOW 12,000 FEET WITH NO
      SIGNIFICANT WEATHER AND/OR OBSTRUCTIONS TO VISIBILITY.
      SKY/WX - SKY CONDITION AND SIGNIFICANT WEATHER.
      TMP - AIR TEMPERATURE.    DP   - DEWPOINT TEMPERATURE.
      RH  - RELATIVE HUMIDITY.  PRES - PRESSURE.
      HX  - HEAT INDEX.         WCI  - WIND CHILL INDEX.

*  THESE STATIONS ARE NOT NWS OR FAA STATIONS AND ARE NOT UNDER
   NWS QUALITY CONTROL.

LAZ040-048-061>063-065-066-069-231400-
SOUTHEAST LOUISIANA

CITY           SKY/WX    TMP DP  RH WIND       PRES   REMARKS
N.O. INTL ARPT CLOUDY    64  58  80 NW12      29.93R
N.O. LAKEFRONT CLOUDY    66  59  78 NW18      29.93R
N.O. DOWNTOWN*   N/A     66  56  70 VRB5        N/A
RESERVE*       NOT AVBL
SLIDELL        CLOUDY    61  59  93 NW5       29.91R
BATON ROUGE    CLOUDY    59  54  83 NW7       29.96R
BOOTHVILLE     CLOUDY    68  65  90 NW10      29.91R
BELLE CHASSE   CLOUDY    64  58  80 VRB5      29.91R
BOGALUSA*      NOT AVBL
GALLIANO*      CLOUDY    64  59  83 NW10      29.93R
NEW ROADS*     CLOUDY    55  52  89 NW9       29.99R
GONZALES*      CLOUDY    59  57  92 W3        29.95R
HAMMOND*       CLOUDY    61  55  82 NW8       29.93S
HOUMA*         CLOUDY    61  59  94 NW9       29.95R
PORT FOURCHON* CLOUDY    68  61  77 N10       29.92S

$$

LAZ041-044-053-054-231400-
SOUTHWEST LOUISIANA

CITY           SKY/WX    TMP DP  RH WIND       PRES   REMARKS
LAKE CHARLES   MOSUNNY   56  45  66 N14       30.03R
LAFAYETTE      CLOUDY    60  50  69 NW13      29.99R
PATTERSON      CLOUDY    60  54  80 N9        29.97R
SALT POINT       N/A     59  52  77 N9        29.96R
NEW IBERIA     CLOUDY    58  49  72 N12       29.99R
CHENAULT AIRPK NOT AVBL

$$

LAZ027-028-231400-
CENTRAL LOUISIANA

CITY           SKY/WX    TMP DP  RH WIND       PRES   REMARKS
FORT POLK      CLOUDY    52  46  79 NW12      30.04R HAZE
ALEXANDRIA INT CLOUDY    53  48  83 NW13G22   30.01R
ALEXANDRIA     CLOUDY    54  50  86 VRB6      30.02R

$$

LAZ001-002-231400-
NORTHWEST LOUISIANA

CITY           SKY/WX    TMP DP  RH WIND       PRES   REMARKS
SHREVEPORT     MOSUNNY   53  47  79 N12       30.07R
BARKSDALE AFB  PTSUNNY   52  46  80 NW15      30.07R
DTN SHREVEPORT MOSUNNY   52  46  80 NW15G22   30.08R

$$

LAZ014-016-231400-
NORTHEAST LOUISIANA

CITY           SKY/WX    TMP DP  RH WIND       PRES   REMARKS
MONROE         PTSUNNY   53  48  83 N12       30.03R
TALLULAH       CLOUDY    54  49  83 VRB6      29.99R

$$





USA.gov is the U.S. government's official web portal to all federal, state and local government web resources and services.